Williston, ND

11:11 AM CDT on March 26, 2017 (GMT -0500)
Sloulin International

Weather History for KISN - October, 2014

Change the Weather History Date:

Saturday, October 4, 2014

  Actual Average Record
Temperature  
Mean Temperature 37 °F 48 °F  
Max Temperature 52 °F 63 °F 93 °F (1963)
Min Temperature 22 °F 34 °F 19 °F (2004)
Degree Days  
Heating Degree Days 28 17  
Month to date heating degree days 92 64  
Since 1 July heating degree days 399 410  
Cooling Degree Days 0 0  
Month to date cooling degree days 0 0  
Year to date cooling degree days 425 455  
Moisture  
Dew Point 27 °F    
Average Humidity 61    
Maximum Humidity 81    
Minimum Humidity 41    
Precipitation  
Precipitation T in 0.03 in 1.23 in (1998)
Month to date precipitation 0.03 0.14  
Year to date precipitation 9.81 12.32  
Sea Level Pressure  
Sea Level Pressure 29.99 in    
Wind  
Wind Speed 3 mph (WNW)    
Max Wind Speed 12 mph    
Max Gust Speed 14 mph    
Visibility 10 miles    
Events      
T = Trace of Precipitation, MM = Missing Value Source: NWS Daily Summary

Daily Weather History Graph

Daily Weather History Graph

Search for Another Location

Airport or City:

Trip Planner

Search our weather history database for the weather conditions in past years. The results will help you decide how hot, cold, wet, or windy it might be!

Date:

Astronomy

Oct. 04, 2014 Rise Set
Actual Time 7:58 AM CDT 7:27 PM CDT
Civil Twilight 7:27 AM CDT 7:58 PM CDT
Nautical Twilight 6:50 AM CDT 8:34 PM CDT
Astronomical Twilight 6:14 AM CDT 9:10 PM CDT
Moon 5:22 PM CDT (10/4) 3:09 AM CDT (10/4)
Length of Visible Light 12h 31m
Length of Day
11h 29m
Waxing Gibbous, 81% of the Moon is Illuminated
Oct 4
Waxing Gibbous
Oct 8
Full
Oct 15
Last Quarter
Oct 23
New
Oct 30
First Quarter

Hourly Weather History & Observations

Time (CDT) Temp. Windchill Dew Point Humidity Pressure Visibility Wind Dir Wind Speed Gust Speed Precip Events Conditions
12:52 AM 27.0 °F - 19.0 °F 72% 30.19 in 10.0 mi Calm Calm - N/A   Clear
1:52 AM 24.1 °F 19.7 °F 19.0 °F 81% 30.18 in 10.0 mi SW 3.5 mph - N/A   Clear
2:52 AM 26.1 °F 21.9 °F 19.9 °F 78% 30.17 in 10.0 mi SSW 3.5 mph - N/A   Partly Cloudy
3:52 AM 28.9 °F - 23.0 °F 78% 30.14 in 10.0 mi Calm Calm - N/A   Overcast
4:52 AM 30.0 °F - 25.0 °F 82% 30.12 in 10.0 mi Calm Calm - N/A   Overcast
5:52 AM 30.0 °F - 25.0 °F 82% 30.11 in 10.0 mi Calm Calm - N/A   Overcast
6:52 AM 30.9 °F - 25.0 °F 79% 30.09 in 10.0 mi Calm Calm - N/A   Partly Cloudy
7:52 AM 30.9 °F - 25.0 °F 79% 30.08 in 10.0 mi Calm Calm - N/A   Mostly Cloudy
8:52 AM 33.1 °F - 27.0 °F 78% 30.06 in 10.0 mi Calm Calm - N/A   Overcast
9:52 AM 36.0 °F - 28.0 °F 73% 30.05 in 10.0 mi Calm Calm - N/A   Overcast
10:52 AM 37.0 °F 34.5 °F 26.1 °F 65% 30.03 in 10.0 mi SSW 3.5 mph - N/A   Overcast
11:52 AM 41.0 °F 39.0 °F 24.1 °F 51% 30.00 in 10.0 mi SE 3.5 mph - N/A   Overcast
12:52 PM 43.0 °F - 25.0 °F 49% 29.98 in - Calm Calm - N/A   Overcast
1:52 PM 46.9 °F - 26.1 °F 44% 29.95 in - Calm Calm - N/A   Overcast
2:52 PM 46.9 °F - 25.0 °F 42% 29.93 in 10.0 mi Calm Calm - N/A   Overcast
3:52 PM 51.1 °F - 28.0 °F 41% 29.89 in 10.0 mi Calm Calm - N/A   Overcast
4:52 PM 52.0 °F - 28.9 °F 41% 29.86 in 10.0 mi Calm Calm - N/A   Overcast
5:52 PM 51.1 °F - 30.9 °F 46% 29.85 in 10.0 mi NE 5.8 mph - N/A   Overcast
6:52 PM 50.0 °F - 28.0 °F 43% 29.84 in 10.0 mi NE 5.8 mph - N/A   Overcast
7:52 PM 48.0 °F - 30.9 °F 52% 29.86 in 10.0 mi NNE 6.9 mph - N/A   Overcast
8:52 PM 41.0 °F 38.0 °F 32.0 °F 70% 29.87 in 10.0 mi NW 4.6 mph - N/A   Scattered Clouds
9:52 PM 45.0 °F - 33.1 °F 63% 29.85 in 10.0 mi Calm Calm - N/A   Overcast
10:52 PM 46.9 °F - 33.1 °F 59% 29.83 in 10.0 mi West 9.2 mph - N/A   Mostly Cloudy
11:52 PM 48.0 °F - 37.9 °F 68% 29.83 in 10.0 mi WNW 10.4 mph - N/A   Overcast